Location: Newark
(48.1500°N, 13.1167°E)
Time: 13:52:30
(UTC+00:00)

Tiangong - Pass Details

Date: 02 October 2021
Orbit: 382 x 384 km, 41.5° (Epoch: 20 October)

Event Time Altitude Azimuth Distance (km) Brightness Sun altitude
Exits shadow 04:24:32 - 242° (WSW) 1,443 3.4 -8.1°
Reaches altitude 10° 04:24:41 10° 241° (WSW) 1,398 3.3 -8.1°
Maximum altitude 04:27:13 22° 187° (S) 884 2.8 -7.7°
Drops below altitude 10° 04:29:44 10° 134° (SE) 1,395 4.6 -7.3°
Sets 04:32:04 0° 118° (ESE) 2,246 6.1 -6.9°
